Location: *
(23.5860°S, 65.4036°W)
Time: 18:31:15
(UTC+00:00)

SJ 16-02 - Pass Details

Date: 25 August 2019
Orbit: 605 x 618 km, 75.0° (Epoch: 15 September)

Event Time Altitude Azimuth Distance (km) Brightness Sun altitude
Rises 23:09:31 0° 190° (S) 2,884 4.9 -14.6°
Reaches altitude 10° 23:11:47 10° 186° (S) 1,974 4.0 -15.1°
Maximum altitude 23:16:10 65° 104° (ESE) 675 1.2 -16.1°
Drops below altitude 10° 23:20:30 10° 22° (NNE) 1,955 3.7 -17.1°
Sets 23:22:44 0° 19° (NNE) 2,853 4.6 -17.6°
